Regional Weather Roundup
Issued by NWS

Home | Current Version | Previous Version | Graphics & Text | Print | Product List | Glossary On
Versions: 1 2 3 4 5 6 7 8 9 10 11 12 13 14 15 16 17 18 19 20 21 22 23 24 25 26 27 28 29 30 31 32 33 34 35 36 37 38 39 40 41 42 43 44 45 46 47 48 49 50
000
ASUS45 KCYS 220110
RWRWY

WYOMING REGIONAL WEATHER ROUNDUP
NATIONAL WEATHER SERVICE CHEYENNE WY
700 PM MDT THU AUG 21 2014

NOTE:  "FAIR" INDICATES FEW OR NO CLOUDS BELOW 12,000 FEET
WITH NO SIGNIFICANT WEATHER AND/OR OBSTRUCTIONS TO VISIBILITY.

WYZ001-220200-
YELLOWSTONE NATIONAL PARK

CITY           SKY/WX    TMP DP  RH WIND       PRES   REMARKS
LK YELLOWSTONE   N/A     53  44  71 CALM      30.25R
W YELLOWSTONE  NOT AVBL

$$
WYZ002>013-054>058-071-098>099-220200-
NORTHERN WYOMING

CITY           SKY/WX    TMP DP  RH WIND       PRES   REMARKS
JACKSON        SUNNY     61  52  72 CALM      30.16S
CODY           MOSUNNY   57  52  82 N14G22    30.11R
GREYBULL       PTSUNNY   74  50  42 NW22G35   30.02R
WORLAND        CLOUDY    69  53  56 N6        30.03R
SHERIDAN       PTSUNNY   62  58  86 NW10      30.06R
BUFFALO        LGT RAIN  58  56  93 N13G25    30.08S FOG
GILLETTE       CLOUDY    72  52  49 NW21G29   29.98S
HULETT         FAIR      73  52  46 MISG      29.99
NEWCASTLE      FAIR      79  43  27 NW7       29.97

$$
WYZ014>020-022>026-101>103-220200-
CENTRAL WYOMING

CITY           SKY/WX    TMP DP  RH WIND       PRES   REMARKS
BIG PINEY      PTSUNNY   62  43  49 E5        30.22S
PINEDALE       MOCLDY    61  41  48 W8        30.23F
DUBOIS         MOCLDY    59  37  44 NW8       30.20R
LANDER         CLOUDY    73  40  30 NW8       30.08S
RIVERTON       CLOUDY    72  42  34 N5        30.09R
CASPER         CLOUDY    68  46  45 S32G41    30.09R
DOUGLAS        CLOUDY    77  40  26 SW10      30.05R

$$
WYZ021-027>030-104>119-220200-
SOUTHERN WYOMING

CITY           SKY/WX    TMP DP  RH WIND       PRES   REMARKS
EVANSTON       PTSUNNY   68  39  34 W13       30.21S
KEMMERER       MOCLDY    64  41  42 W9        30.23S
FORT BRIDGER   FAIR      70  43  37 NW7G16    30.24S
ROCK SPRINGS   CLOUDY    60  50  69 SE13      30.22F
DIXON          FAIR      61  48  63 N7        30.28R
RAWLINS        CLOUDY    57  47  69 W16G23    30.24F
SARATOGA       CLOUDY    55  50  82 MISG      30.29R
LARAMIE        MOCLDY    69  39  33 SW5       30.22S
CHEYENNE       CLOUDY    72  44  36 S13       30.15F
TORRINGTON     MOCLDY    81  47  30 S8        29.98S
PINE BLUFFS    CLOUDY    73  48  40 NW8       30.11R

$$



USA.gov is the U.S. government's official web portal to all federal, state and local government web resources and services.